H1 CPF 2 NER 2024 5 23 9 144 01 glonass128 H2 1106401 9128 37867 2024 5 23 0 0 0 2024 5 26 23 45 0 900 1 1 0 0 0 1 H9 10 0 60453 0.00000 0 -7386415.269 -16364904.062 18194861.337 10 0 60453 900.00000 0 -5531192.452 -14927834.319 19999887.922 10 0 60453 1800.00000 0 -3406440.344 -13528102.325 21418942.796 10 0 60453 2700.00000 0 -1052516.015 -12219495.610 22424614.941 10 0 60453 3600.00000 0 1480191.746 -11048441.074 22997412.830 10 0 60453 4500.00000 0 4133091.304 -10052117.884 23126138.610 10 0 60453 5400.00000 0 6841561.138 -9256969.931 22808110.322 10 0 60453 6300.00000 0 9537380.232 -8677678.995 22049227.632 10 0 60453 7200.00000 0 12151318.466 -8316641.322 20863878.813 10 0 60453 8100.00000 0 14615782.695 -8163970.194 19274689.092 10 0 60453 9000.00000 0 16867411.213 -8198025.792 17312112.994 10 0 60453 9900.00000 0 18849510.417 -8386452.141 15013875.941 10 0 60453 10800.00000 0 20514233.020 -8687679.825 12424273.173 10 0 60453 11700.00000 0 21824406.749 -9052833.511 9593336.912 10 0 60453 12600.00000 0 22754935.958 -9427965.732 6575885.630 10 0 60453 13500.00000 0 23293715.677 -9756523.890 3430472.131 10 0 60453 14400.00000 0 23442017.483 -9981946.498 218249.844 10 0 60453 15300.00000 0 23214328.622 -10050278.212 -2998220.826 10 0 60453 16200.00000 0 22637649.007 -9912691.226 -6156202.294 10 0 60453 17100.00000 0 21750274.092 -9527803.791 -9194020.503 10 0 60453 18000.00000 0 20600114.051 -8863694.481 -12052290.422 10 0 60453 18900.00000 0 19242620.126 -7899523.479 -14675100.192 10 0 60453 19800.00000 0 17738406.426 -6626688.819 -17011128.359 10 0 60453 20700.00000 0 16150669.053 -5049465.548 -19014669.987 10 0 60453 21600.00000 0 14542513.388 -3185098.245 -20646549.469 10 0 60453 22500.00000 0 12974304.461 -1063341.152 -21874900.538 10 0 60453 23400.00000 0 11501154.172 1274535.717 -22675797.018 10 0 60453 24300.00000 0 10170652.900 3777232.920 -23033721.444 10 0 60453 25200.00000 0 9020942.071 6385337.528 -22941862.387 10 0 60453 26100.00000 0 8079209.049 9033587.326 -22402235.224 10 0 60453 27000.00000 0 7360667.017 11653387.220 -21425625.021 10 0 60453 27900.00000 0 6868061.264 14175471.372 -20031354.037 10 0 60453 28800.00000 0 6591720.363 16532598.680 -18246880.039 10 0 60453 29700.00000 0 6510147.233 18662168.454 -16107235.100 10 0 60453 30600.00000 0 6591122.019 20508647.080 -13654317.676 10 0 60453 31500.00000 0 6793267.079 22025705.021 -10936053.604 10 0 60453 32400.00000 0 7068005.086 23177976.417 -8005444.066 10 0 60453 33300.00000 0 7361825.092 23942369.900 -4919520.447 10 0 60453 34200.00000 0 7618759.033 24308878.528 -1738227.628 10 0 60453 35100.00000 0 7782963.028 24280857.980 1476741.901 10 0 60453 36000.00000 0 7801294.214 23874764.479 4663140.199 10 0 60453 36900.00000 0 7625774.832 23119366.281 7759359.371 10 0 60453 37800.00000 0 7215840.720 22054464.111 10705608.032 10 0 60453 38700.00000 0 6540280.917 20729175.790 13445047.209 10 0 60453 39600.00000 0 5578788.342 19199857.631 15924865.377 10 0 60453 40500.00000 0 4323057.811 17527749.415 18097273.889 10 0 60453 41400.00000 0 2777386.268 15776440.339 19920405.799 10 0 60453 42300.00000 0 958750.424 14009260.026 21359102.944 10 0 60453 43200.00000 0 -1103641.967 12286701.154 22385578.180 10 0 60453 44100.00000 0 -3369309.917 10663978.624 22979941.705 10 0 60453 45000.00000 0 -5787928.410 9188824.492 23130582.527 10 0 60453 45900.00000 0 -8301172.495 7899608.380 22834398.225 10 0 60453 46800.00000 0 -10844903.046 6823860.058 22096868.407 10 0 60453 47700.00000 0 -13351606.881 5977254.984 20931969.473 10 0 60453 48600.00000 0 -15752993.296 5363105.084 19361930.705 10 0 60453 49500.00000 0 -17982641.998 4972376.803 17416834.167 10 0 60453 50400.00000 0 -19978594.421 4784237.134 15134063.568 10 0 60453 51300.00000 0 -21685781.695 4767106.569 12557610.010 10 0 60453 52200.00000 0 -23058188.201 4880176.798 9737245.359 10 0 60453 53100.00000 0 -24060659.426 5075331.120 6727576.998 10 0 60453 54000.00000 0 -24670276.785 5299388.004 3587000.485 10 0 60453 54900.00000 0 -24877239.454 5496573.709 376569.393 10 0 60453 55800.00000 0 -24685213.577 5611119.170 -2841195.944 10 0 60453 56700.00000 0 -24111131.593 5589870.028 -6003537.054 10 0 60453 57600.00000 0 -23184447.957 5384797.160 -9048698.160 10 0 60453 58500.00000 0 -21945881.055 4955298.533 -11917153.089 10 0 60453 59400.00000 0 -20445693.617 4270191.577 -14552792.102 10 0 60453 60300.00000 0 -18741584.262 3309308.254 -16904043.034 10 0 60453 61200.00000 0 -16896279.989 2064622.056 -18924902.430 10 0 60453 62100.00000 0 -14974932.655 540856.426 -20575854.404 10 0 60453 63000.00000 0 -13042431.029 -1244453.317 -21824657.568 10 0 60453 63900.00000 0 -11160743.607 -3261448.557 -22646983.430 10 0 60453 64800.00000 0 -9386405.745 -5468966.533 -23026893.204 10 0 60453 65700.00000 0 -7768258.022 -7816047.114 -22957143.683 10 0 60453 66600.00000 0 -6345531.445 -10243863.128 -22439316.737 10 0 60453 67500.00000 0 -5146359.584 -12687992.195 -21483770.897 10 0 60453 68400.00000 0 -4186778.908 -15080933.527 -20109417.352 10 0 60453 69300.00000 0 -3470257.256 -17354763.072 -18343326.386 10 0 60453 70200.00000 0 -2987767.428 -19443814.962 -16220173.745 10 0 60453 71100.00000 0 -2718399.551 -21287276.668 -13781539.589 10 0 60453 72000.00000 0 -2630482.911 -22831589.473 -11075075.555 10 0 60453 72900.00000 0 -2683166.590 -24032554.776 -8153557.816 10 0 60453 73800.00000 0 -2828389.137 -24857059.701 -5073846.048 10 0 60453 74700.00000 0 -3013151.713 -25284351.955 -1895769.697 10 0 60453 75600.00000 0 -3181996.988 -25306813.205 1319036.042 10 0 60453 76500.00000 0 -3279588.236 -24930201.422 4508321.663 10 0 60453 77400.00000 0 -3253279.689 -24173354.772 7610419.264 10 0 60453 78300.00000 0 -3055570.373 -23067371.904 10565420.495 10 0 60453 79200.00000 0 -2646339.175 -21654304.756 13316314.985 10 0 60453 80100.00000 0 -1994768.575 -19985419.620 15810068.836 10 0 60453 81000.00000 0 -1080877.672 -18119099.360 17998624.399 10 0 60453 81900.00000 0 103398.578 -16118473.605 19839804.211 10 0 60453 82800.00000 0 1553628.391 -14048874.284 21298103.885 10 0 60453 83700.00000 0 3252824.770 -11975220.342 22345360.734 10 0 60453 84600.00000 0 5171913.018 -9959437.924 22961286.993 10 0 60453 85500.00000 0 7270706.344 -8058020.689 23133858.552 10 0 60454 0.00000 0 9499351.302 -6319829.332 22859552.336 10 0 60454 900.00000 0 11800187.229 -4784218.849 22143427.359 10 0 60454 1800.00000 0 14109942.795 -3479572.303 20999047.442 10 0 60454 2700.00000 0 16362185.753 -2422298.436 19448244.991 10 0 60454 3600.00000 0 18489924.182 -1616337.392 17520728.469 10 0 60454 4500.00000 0 20428254.583 -1053195.170 15253538.515 10 0 60454 5400.00000 0 22116947.895 -712506.969 12690360.477 10 0 60454 6300.00000 0 23502866.135 -563107.570 9880703.997 10 0 60454 7200.00000 0 24542108.144 -564565.618 6878963.214 10 0 60454 8100.00000 0 25201793.180 -669118.681 3743374.005 10 0 60454 9000.00000 0 25461405.360 -823928.424 534887.406 10 0 60454 9900.00000 0 25313639.730 -973560.793 -2684019.180 10 0 60454 10800.00000 0 24764711.579 -1062585.523 -5850569.348 10 0 60454 11700.00000 0 23834113.240 -1038183.313 -8902928.534 10 0 60454 12600.00000 0 22553826.500 -852647.739 -11781432.232 10 0 60454 13500.00000 0 20967022.316 -465672.942 -14429775.419 10 0 60454 14400.00000 0 19126302.064 153673.169 -16796137.547 10 0 60454 15300.00000 0 17091554.675 1025377.032 -18834218.667 10 0 60454 16200.00000 0 14927520.950 2157378.386 -20504164.333 10 0 60454 17100.00000 0 12701169.072 3544989.090 -21773359.460 10 0 60454 18000.00000 0 10478993.573 5170858.058 -22617074.352 10 0 60454 18900.00000 0 8324353.026 7005484.786 -23018949.694 10 0 60454 19800.00000 0 6294959.677 9008260.015 -22971310.959 10 0 60454 20700.00000 0 4440627.265 11128989.216 -22475306.591 10 0 60454 21600.00000 0 2801371.496 13309833.893 -21540868.276 10 0 60454 22500.00000 0 1405942.031 15487587.845 -20186495.410 10 0 60454 23400.00000 0 270845.782 17596191.523 -18438869.657 10 0 60454 24300.00000 0 -600100.046 19569377.807 -16332308.892 10 0 60454 25200.00000 0 -1215669.631 21343337.486 -13908073.053 10 0 60454 26100.00000 0 -1596592.645 22859292.433 -11213537.288 10 0 60454 27000.00000 0 -1774411.268 24065868.982 -8301250.178 10 0 60454 27900.00000 0 -1789881.763 24921173.118 -5227896.834 10 0 60454 28800.00000 0 -1690991.038 25394482.123 -2053188.232 10 0 60454 29700.00000 0 -1530674.232 25467483.987 1161300.875 10 0 60454 30600.00000 0 -1364331.184 25135015.111 4353322.598 10 0 60454 31500.00000 0 -1247247.252 24405267.943 7461152.149 10 0 60454 32400.00000 0 -1232027.122 23299462.219 10424767.205 10 0 60454 33300.00000 0 -1366148.912 21850995.489 13186988.795 10 0 60454 34200.00000 0 -1689740.244 20104109.697 15694563.220 10 0 60454 35100.00000 0 -2233668.213 18112129.982 17899166.133 10 0 60454 36000.00000 0 -3018022.000 15935348.723 19758311.589 10 0 60454 36900.00000 0 -4051050.588 13638641.763 21236150.709 10 0 60454 37800.00000 0 -5328599.534 11288914.009 22304146.694 10 0 60454 38700.00000 0 -6834070.565 8952478.086 22941614.904 10 0 60454 39600.00000 0 -8538906.835 6692472.180 23136118.827 10 0 60454 40500.00000 0 -10403585.546 4566421.511 22883714.942 10 0 60454 41400.00000 0 -12379079.302 2624042.200 22189041.593 10 0 60454 42300.00000 0 -14408728.515 905376.849 21065249.333 10 0 60454 43200.00000 0 -16430450.302 -560661.894 19533772.470 10 0 60454 44100.00000 0 -18379195.138 -1757279.575 17623944.109 10 0 60454 45000.00000 0 -20189551.651 -2680278.394 15372459.533 10 0 60454 45900.00000 0 -21798392.939 -3338004.836 12822695.596 10 0 60454 46800.00000 0 -23147454.923 -3750767.171 10023896.576 10 0 60454 47700.00000 0 -24185738.857 -3949745.503 7030239.939 10 0 60454 48600.00000 0 -24871636.262 -3975438.619 3899798.264 10 0 60454 49500.00000 0 -25174685.140 -3875711.821 693416.348 10 0 60454 50400.00000 0 -25076880.981 -3703527.610 -2526475.042 10 0 60454 51300.00000 0 -24573484.380 -3514455.373 -5697085.196 10 0 60454 52200.00000 0 -23673288.197 -3364066.614 -8756504.251 10 0 60454 53100.00000 0 -22398330.284 -3305328.004 -11644932.656 10 0 60454 54000.00000 0 -20783061.758 -3386105.349 -14305873.129 10 0 60454 54900.00000 0 -18873004.537 -3646887.267 -16687259.404 10 0 60454 55800.00000 0 -16722954.272 -4118828.239 -18742497.270 10 0 60454 56700.00000 0 -14394804.698 -4822196.863 -20431395.415 10 0 60454 57600.00000 0 -11955085.999 -5765297.623 -21720966.118 10 0 60454 58500.00000 0 -9472322.178 -6943913.650 -22586078.876 10 0 60454 59400.00000 0 -7014320.053 -8341295.262 -23009953.556 10 0 60454 60300.00000 0 -4645505.121 -9928695.148 -22984483.348 10 0 60454 61200.00000 0 -2424417.086 -11666427.349 -22510381.718 10 0 60454 62100.00000 0 -401470.387 -13505404.528 -21597151.425 10 0 60454 63000.00000 0 1382926.900 -15389087.523 -20262877.575 10 0 60454 63900.00000 0 2899818.280 -17255763.721 -18533850.378 10 0 60454 64800.00000 0 4132649.817 -19041057.024 -16444026.771 10 0 60454 65700.00000 0 5077689.960 -20680562.803 -14034343.258 10 0 60454 66600.00000 0 5743904.076 -22112496.413 -11351895.222 10 0 60454 67500.00000 0 6152292.770 -23280243.899 -8449000.384 10 0 60454 68400.00000 0 6334725.585 -24134708.311 -5382166.114 10 0 60454 69300.00000 0 6332322.670 -24636354.249 -2210981.886 10 0 60454 70200.00000 0 6193455.528 -24756866.513 1003040.827 10 0 60454 71100.00000 0 5971453.272 -24480355.387 4197658.353 10 0 60454 72000.00000 0 5722112.402 -23804060.255 7311091.352 10 0 60454 72900.00000 0 5501115.493 -22738524.339 10283205.585 10 0 60454 73800.00000 0 5361467.102 -21307235.126 13056655.232 10 0 60454 74700.00000 0 5351053.812 -19545746.929 15577968.231 10 0 60454 75600.00000 0 5510429.492 -17500322.884 17798554.658 10 0 60454 76500.00000 0 5870917.155 -15226152.836 19675620.853 10 0 60454 77400.00000 0 6453105.560 -12785220.347 21172973.891 10 0 60454 78300.00000 0 7265802.431 -10243905.699 22261702.963 10 0 60454 79200.00000 0 8305487.745 -7670422.061 22920726.337 10 0 60454 80100.00000 0 9556290.302 -5132188.397 23137194.599 10 0 60454 81000.00000 0 10990489.901 -2693245.144 22906743.062 10 0 60454 81900.00000 0 12569526.276 -411817.024 22233588.383 10 0 60454 82800.00000 0 14245475.489 1661878.231 21130466.702 10 0 60454 83700.00000 0 15962935.384 3487485.997 19618412.946 10 0 60454 84600.00000 0 17661244.714 5035959.522 17726383.440 10 0 60454 85500.00000 0 19276946.275 6290533.259 15490726.573 10 0 60455 0.00000 0 20746393.411 7247183.466 12954509.257 10 0 60455 900.00000 0 22008393.148 7914556.025 10166708.114 10 0 60455 1800.00000 0 23006773.798 8313361.668 7181282.130 10 0 60455 2700.00000 0 23692771.363 8475264.009 4056138.390 10 0 60455 3600.00000 0 24027130.877 8441304.383 852013.076 10 0 60455 4500.00000 0 23981832.621 8259929.519 -2368712.179 10 0 60455 5400.00000 0 23541367.419 7984705.007 -5543234.931 10 0 60455 6300.00000 0 22703503.948 7671811.876 -8609572.570 10 0 60455 7200.00000 0 21479512.623 7377433.686 -11507792.951 10 0 60455 8100.00000 0 19893833.884 7155147.000 -14181208.809 10 0 60455 9000.00000 0 17983202.861 7053428.515 -16577510.214 10 0 60455 9900.00000 0 15795266.107 7113387.429 -18649810.496 10 0 60455 10800.00000 0 13386748.367 7366822.056 -20357583.034 10 0 60455 11700.00000 0 10821246.914 7834685.580 -21667468.802 10 0 60455 12600.00000 0 8166747.281 8526027.933 -22553937.587 10 0 60455 13500.00000 0 5492966.063 9437459.893 -22999789.294 10 0 60455 14400.00000 0 2868633.701 10553162.649 -22996485.430 10 0 60455 15300.00000 0 358832.355 11845442.195 -22544304.753 10 0 60455 16200.00000 0 -1977498.963 13275804.373 -21652321.008 10 0 60455 17100.00000 0 -4089787.572 14796503.869 -20338204.512 10 0 60455 18000.00000 0 -5937686.399 16352500.287 -18627853.102 10 0 60455 18900.00000 0 -7492493.259 17883737.207 -16554861.435 10 0 60455 19800.00000 0 -8738073.253 19327646.780 -14159840.848 10 0 60455 20700.00000 0 -9671248.800 20621773.252 -11489604.875 10 0 60455 21600.00000 0 -10301644.652 21706404.399 -8596238.012 10 0 60455 22500.00000 0 -10650998.221 22527100.129 -5536067.295 10 0 60455 23400.00000 0 -10751967.949 23037012.521 -2368557.934 10 0 60455 24300.00000 0 -10646493.185 23198900.959 844844.735 10 0 60455 25200.00000 0 -10383777.320 22986759.395 4041904.157 10 0 60455 26100.00000 0 -10017980.988 22386989.364 7160789.337 10 0 60455 27000.00000 0 -9605723.478 21399071.620 10141256.951 10 0 60455 27900.00000 0 -9203497.611 20035710.100 12925797.064 10 0 60455 28800.00000 0 -8865106.148 18322443.657 15460721.844 10 0 60455 29700.00000 0 -8639226.179 16296742.608 17697178.204 10 0 60455 30600.00000 0 -8567202.080 14006627.826 19592066.992 10 0 60455 31500.00000 0 -8681157.867 11508869.124 21108853.215 10 0 60455 32400.00000 0 -9002506.514 8866836.234 22218253.773 10 0 60455 33300.00000 0 -9540917.616 6148089.313 22898791.267 10 0 60455 34200.00000 0 -10293786.255 3421806.161 23137204.456 10 0 60455 35100.00000 0 -11246225.798 756149.713 22928708.184 10 0 60455 36000.00000 0 -12371586.366 -1784318.143 22277097.679 10 0 60455 36900.00000 0 -13632479.480 -4141071.901 21194694.449 10 0 60455 37800.00000 0 -14982268.876 -6263808.122 19702133.311 10 0 60455 38700.00000 0 -16366968.267 -8112292.114 17827992.559 10 0 60455 39600.00000 0 -17727469.725 -9657789.380 15608271.914 10 0 60455 40500.00000 0 -19002012.063 -10884021.971 13085725.622 10 0 60455 41400.00000 0 -20128787.780 -11787608.821 10309060.862 10 0 60455 42300.00000 0 -21048580.171 -12377970.146 7332014.670 10 0 60455 43200.00000 0 -21707319.804 -12676698.195 4212325.289 10 0 60455 44100.00000 0 -22058451.670 -12716419.097 1010616.747 10 0 60455 45000.00000 0 -22065011.238 -12539192.433 -2210782.132 10 0 60455 45900.00000 0 -21701319.023 -12194515.324 -5389060.895 10 0 60455 46800.00000 0 -20954218.908 -11737015.438 -8462167.903 10 0 60455 47700.00000 0 -19823804.571 -11223931.377 -11370042.048 10 0 60455 48600.00000 0 -18323600.204 -10712488.800 -14055809.549 10 0 60455 49500.00000 0 -16480185.296 -10257285.708 -16466920.010 10 0 60455 50400.00000 0 -14332277.444 -9907800.320 -18556197.124 10 0 60455 51300.00000 0 -11929310.832 -9706129.881 -20282781.283 10 0 60455 52200.00000 0 -9329569.993 -9685058.738 -21612943.875 10 0 60455 53100.00000 0 -6597957.912 -9866539.540 -22520756.010 10 0 60455 54000.00000 0 -3803493.200 -10260653.306 -22988597.942 10 0 60455 54900.00000 0 -1016642.603 -10865093.005 -23007499.087 10 0 60455 55800.00000 0 1693398.101 -11665192.386 -22577302.424 10 0 60455 56700.00000 0 4261360.076 -12634498.007 -21706651.020 10 0 60455 57600.00000 0 6628382.751 -13735858.955 -20412798.246 10 0 60455 58500.00000 0 8744217.058 -14922986.437 -18721246.989 10 0 60455 59400.00000 0 10569059.602 -16142415.545 -16665226.718 10 0 60455 60300.00000 0 12074943.054 -17335784.546 -14285020.416 10 0 60455 61200.00000 0 13246627.291 -18442333.992 -11627156.386 10 0 60455 62100.00000 0 14081957.332 -19401519.139 -8743482.360 10 0 60455 63000.00000 0 14591676.759 -20155625.036 -5690141.427 10 0 60455 63900.00000 0 14798708.227 -20652274.149 -2526470.927 10 0 60455 64800.00000 0 14736934.887 -20846721.661 686153.455 10 0 60455 65700.00000 0 14449537.015 -20703843.106 3885505.616 10 0 60455 66600.00000 0 13986956.208 -20199732.392 7009705.951 10 0 60455 67500.00000 0 13404574.266 -19322844.950 9998404.750 10 0 60455 68400.00000 0 12760205.012 -18074639.838 12793930.239 10 0 60455 69300.00000 0 12111504.176 -16469695.370 15342380.636 10 0 60455 70200.00000 0 11513405.099 -14535294.435 17594641.033 10 0 60455 71100.00000 0 11015686.288 -12310497.032 19507307.648 10 0 60455 72000.00000 0 10660770.918 -9844738.159 21043503.817 10 0 60455 72900.00000 0 10481848.602 -7196007.992 22173574.117 10 0 60455 73800.00000 0 10501396.458 -4428687.792 22875645.034 10 0 60455 74700.00000 0 10730160.330 -1611128.607 23136042.711 10 0 60455 75600.00000 0 11166638.520 1186929.984 22949560.423 10 0 60455 76500.00000 0 11797090.212 3896997.378 22319570.626 10 0 60455 77400.00000 0 12596069.699 6454419.411 21257978.655 10 0 60455 78300.00000 0 13527466.276 8800811.069 19785017.524 10 0 60455 79200.00000 0 14546008.967 10886235.409 17928885.688 10 0 60455 80100.00000 0 15599175.970 12671039.111 15725232.299 10 0 60455 81000.00000 0 16629431.524 14127268.456 13216497.165 10 0 60455 81900.00000 0 17576698.586 15239605.960 10451115.481 10 0 60455 82800.00000 0 18380964.898 16005787.196 7482600.331 10 0 60455 83700.00000 0 18984913.271 16436478.560 4368518.819 10 0 60455 84600.00000 0 19336464.753 16554619.296 1169380.415 10 0 60455 85500.00000 0 19391125.764 16394253.728 -2052541.310 10 0 60456 0.00000 0 19114037.690 15998901.817 -5234430.058 10 0 60456 900.00000 0 18481639.014 15419536.056 -8314168.103 10 0 60456 1800.00000 0 17482866.758 14712251.067 -11231567.324 10 0 60456 2700.00000 0 16119842.568 13935724.942 -13929569.450 10 0 60456 3600.00000 0 14408011.691 13148582.008 -16355385.423 10 0 60456 4500.00000 0 12375726.443 12406770.881 -18461550.857 10 0 60456 5400.00000 0 10063290.083 11761071.350 -20206874.488 10 0 60456 6300.00000 0 7521500.517 11254838.113 -21557259.227 10 0 60456 7200.00000 0 4809755.097 10922078.980 -22486378.425 10 0 60456 8100.00000 0 1993796.740 10785950.373 -22976193.396 10 0 60456 9000.00000 0 -856803.033 10857734.534 -23017301.934 10 0 60456 9900.00000 0 -3671317.422 11136341.668 -22609111.427 10 0 60456 10800.00000 0 -6380581.045 11608357.270 -21759834.114 10 0 60456 11700.00000 0 -8919635.657 12248631.171 -20486305.876 10 0 60456 12600.00000 0 -11230194.114 13021381.483 -18813633.705 10 0 60456 13500.00000 0 -13262820.195 13881764.602 -16774680.538 10 0 60456 14400.00000 0 -14978734.602 14777842.725 -14409399.318 10 0 60456 15300.00000 0 -16351173.733 15652863.736 -11764031.129 10 0 60456 16200.00000 0 -17366247.300 16447755.558 -8890184.744 10 0 60456 17100.00000 0 -18023262.219 17103728.563 -5843816.951 10 0 60456 18000.00000 0 -18334502.829 17564875.760 -2684134.774 10 0 60456 18900.00000 0 -18324480.271 17780661.260 527558.262 10 0 60456 19800.00000 0 -18028685.853 17708192.982 3729049.036 10 0 60456 20700.00000 0 -17491903.488 17314185.132 6858411.895 10 0 60456 21600.00000 0 -16766154.088 16576529.547 9855193.289 10 0 60456 22500.00000 0 -15908359.355 15485411.560 12661562.139 10 0 60456 23400.00000 0 -14977823.227 14043925.100 15223405.189 10 0 60456 24300.00000 0 -14033635.976 12268162.384 17491348.086 10 0 60456 25200.00000 0 -13132108.408 10186774.913 19421684.658 10 0 60456 26100.00000 0 -12324341.772 7840023.816 20977198.624 10 0 60456 27000.00000 0 -11654033.035 5278357.969 22127864.044 10 0 60456 27900.00000 0 -11155605.293 2560577.047 22851412.835 10 0 60456 28800.00000 0 -10852739.919 -248346.826 23133759.740 10 0 60456 29700.00000 0 -10757370.769 -3079701.577 22969277.340 10 0 60456 30600.00000 0 -10869182.302 -5863624.402 22360915.803 10 0 60456 31500.00000 0 -11175633.247 -8531743.594 21320164.375 10 0 60456 32400.00000 0 -11652506.313 -11019766.411 19866853.909 10 0 60456 33300.00000 0 -12264963.027 -13269907.897 18028802.223 10 0 60456 34200.00000 0 -12969062.094 -15233061.215 15841306.649 10 0 60456 35100.00000 0 -13713680.144 -16870619.759 13346490.883 10 0 60456 36000.00000 0 -14442756.624 -18155874.764 10592516.049 10 0 60456 36900.00000 0 -15097770.174 -19074928.861 7632668.848 10 0 60456 37800.00000 0 -15620343.146 -19627085.647 4524342.492 10 0 60456 38700.00000 0 -15954864.412 -19824696.901 1327928.889 10 0 60456 39600.00000 0 -16051018.613 -19692471.888 -1894356.877 10 0 60456 40500.00000 0 -15866112.906 -19266276.158 -5079696.620 10 0 60456 41400.00000 0 -15367100.012 -18591469.442 -8165908.911 10 0 60456 42300.00000 0 -14532208.620 -17720852.511 -11092682.774 10 0 60456 43200.00000 0 -13352108.707 -16712310.302 -13802779.031 10 0 60456 44100.00000 0 -11830559.134 -15626252.241 -16243173.416 10 0 60456 45000.00000 0 -9984507.279 -14522959.976 -18366116.687 10 0 60456 45900.00000 0 -7843634.274 -13459956.969 -20130088.771 10 0 60456 46800.00000 0 -5449363.601 -12489513.531 -21500626.470 10 0 60456 47700.00000 0 -2853374.209 -11656394.947 -22451007.151 10 0 60456 48600.00000 0 -115680.809 -10995949.483 -22962774.315 10 0 60456 49500.00000 0 2697637.359 -10532617.986 -23026094.602 10 0 60456 50400.00000 0 5516962.967 -10278928.193 -22639939.640 10 0 60456 51300.00000 0 8271815.304 -10235015.472 -21812090.075 10 0 60456 52200.00000 0 10893560.388 -10388688.797 -20558963.007 10 0 60456 53100.00000 0 13318042.576 -10716037.090 -18905267.767 10 0 60456 54000.00000 0 15488027.755 -11182547.842 -16883498.549 10 0 60456 54900.00000 0 17355356.789 -11744688.159 -14533275.632 10 0 60456 55800.00000 0 18882720.736 -12351878.895 -11900549.877 10 0 60456 56700.00000 0 20044985.893 -12948776.256 -9036687.727 10 0 60456 57600.00000 0 20830016.127 -13477762.789 -5997456.017 10 0 60456 58500.00000 0 21238961.337 -13881541.440 -2841927.591 10 0 60456 59400.00000 0 21286003.441 -14105722.808 368670.141 10 0 60456 60300.00000 0 20997573.887 -14101296.681 3572140.954 10 0 60456 61200.00000 0 20411078.440 -13826884.572 6706516.866 10 0 60456 62100.00000 0 19573185.105 -13250679.696 9711243.905 10 0 60456 63000.00000 0 18537748.486 -12351994.320 12528334.679 10 0 60456 63900.00000 0 17363458.246 -11122351.044 15103466.951 10 0 60456 64800.00000 0 16111309.928 -9566073.473 17387008.897 10 0 60456 65700.00000 0 14842002.929 -7700352.281 19334953.377 10 0 60456 66600.00000 0 13613372.761 -5554783.926 20909745.383 10 0 60456 67500.00000 0 12477962.818 -3170400.453 22080988.855 10 0 60456 68400.00000 0 11480834.845 -598229.099 22826021.065 10 0 60456 69300.00000 0 10657707.461 2102560.793 23130344.860 10 0 60456 70200.00000 0 10033498.879 4866849.653 22987911.239 10 0 60456 71100.00000 0 9621333.687 7626010.792 22401246.857 10 0 60456 72000.00000 0 9422055.075 10310506.845 21381423.343 10 0 60456 72900.00000 0 9424263.587 12852535.048 19947867.614 10 0 60456 73800.00000 0 9604882.247 15188614.251 18128014.863 10 0 60456 74700.00000 0 9930226.395 17262008.082 15956808.441 10 0 60456 75600.00000 0 10357535.717 19024884.411 13476053.620 10 0 60456 76500.00000 0 10836906.405 20440121.176 10733635.014 10 0 60456 77400.00000 0 11313544.090 21482682.248 7782610.376 10 0 60456 78300.00000 0 11730243.955 22140504.151 4680196.365 10 0 60456 79200.00000 0 12029993.758 22414854.416 1486664.597 10 0 60456 80100.00000 0 12158589.258 22320144.197 -1735831.070 10 0 60456 81000.00000 0 12067149.852 21883201.017 -4924472.984 10 0 60456 81900.00000 0 11714425.540 21142030.636 -8017019.153 10 0 60456 82800.00000 0 11068794.452 20144119.338 -10953037.834 10 0 60456 83700.00000 0 10109862.949 18944348.208 -13675111.063 10 0 60456 84600.00000 0 8829597.075 17602608.207 -16129981.211 10 0 60456 85500.00000 0 7232934.330 16181218.237 -18269615.730 99